Regional Weather Roundup
Issued by NWS Glasgow, MT

Home | Current Version | Previous Version | Text Only | Print | Product List | Glossary On
Versions: 1 2 3 4 5 6 7 8 9 10 11 12 13 14 15 16 17 18 19 20 21 22 23 24 25 26 27
000
ASUS45 KGGW 221415
RWRGGW
HOURLY REGIONAL WEATHER ROUNDUP FOR NORTHEAST MONTANA
NATIONAL WEATHER SERVICE GLASGOW MONTANA
700 AM MST WED NOV 22 2017

NOTE: "FAIR" INDICATES FEW OR NO CLOUDS BELOW 12,000 FEET WITH NO
SIGNIFICANT WEATHER AND/OR OBSTRUCTIONS TO VISISBILITY.

NORTHEAST MONTANA


CITY           SKY/WX    TMP DP  RH WIND       PRES   REMARKS
GLASGOW        CLOUDY    29  24  82 E6        29.80S
PLENTYWOOD       N/A     23  17  78 SE5         N/A
WOLF POINT     CLOUDY    20  12  71 CALM      29.83F
JORDAN           N/A     48  38  68 W14       29.85S
WINNETT          N/A     55  38  52 S10         N/A
SIDNEY         CLOUDY    29  24  82 S12       29.84F
GLENDIVE       CLOUDY    30  26  85 S14       29.88S
MALTA            N/A     35  29  78 W5G17       N/A
SCOBEY           N/A     25  10  53 CALM      29.77F

FORT PECK REPORTS


CITY           SKY/WX    TMP DP  RH WIND       PRES   REMARKS
FORT PECK        N/A     44  40  85 S12         N/A
THE PINES        N/A     51  38  60 SW9         N/A

SOUTHEAST MONTANA


CITY           SKY/WX    TMP DP  RH WIND       PRES   REMARKS
BILLINGS       CLOUDY    47  34  60 W23       30.05R
MILES CITY     CLOUDY    34  30  85 SW9       29.92F
BAKER          CLOUDY    39  31  72 W9        29.92F
LIVINGSTON     CLOUDY    53  39  59 W22G39    30.11R

CENTRAL MONTANA


CITY           SKY/WX    TMP DP  RH WIND       PRES   REMARKS
HAVRE          CLOUDY    51  40  65 W13       29.89R
LEWISTOWN      CLOUDY    54  39  57 W23       30.00R
GREAT FALLS    CLOUDY    55  39  54 SW24      29.98R
CUT BANK       MOCLDY    50  42  74 W33G40    29.89R
HELENA         CLOUDY    38  35  89 CALM      30.12R
BUTTE          CLOUDY    47  37  68 CALM      30.22R
BOZEMAN        CLOUDY    41  34  76 CALM      30.18R

WESTERN MONTANA


CITY           SKY/WX    TMP DP  RH WIND       PRES   REMARKS
MISSOULA       CLOUDY    38  37  97 NE5       30.18R FOG
KALISPELL      NOT AVBL

NORTH DAKOTA


CITY           SKY/WX    TMP DP  RH WIND       PRES   REMARKS
WILLISTON      CLOUDY    27  18  69 S5        29.82F
DICKINSON      CLOUDY    37  25  61 SW9       29.85F
MINOT          CLOUDY    23  14  68 SE8       29.86F
BISMARCK       CLOUDY    24  15  68 SE10      29.97F

SOUTHERN SASKATCHEWAN


CITY           SKY/WX    TMP DP  RH WIND       PRES   REMARKS
REGINA         MOCLDY    16  12  86 E10       29.79F
MOOSE JAW      MOCLDY    18  16  93 E6        29.78F
ESTEVAN        CLOUDY    21  14  73 SE7       29.80F
SWIFT CURRENT  CLEAR     34  28  80 W17G24    29.72R





USA.gov is the U.S. government's official web portal to all federal, state and local government web resources and services.